Terminal Aerodrome Forecast
Issued by NWS

Home | Current Version | Previous Version | Text Only | Print | Product List | Glossary Off
Versions: 1 2 3 4 5 6 7 8 9 10 11 12 13 14 15 16 17 18 19 20 21 22 23 24 25

927
FTUS43 KTOP 281436 AAA
TAFFOE
TAF AMD
KFOE 281436Z 2815/2912 29014KT P6SM SCT016 BKN029
     FM281600 31010KT P6SM SCT035 SCT100
     FM290000 01006KT P6SM SCT100
     FM290900 05009KT P6SM VCSH SCT022 BKN100=

USA.gov is the U.S. government's official web portal to all federal, state and local government web resources and services.